EW3163 Weather Reports


Display with metric or nautical units.
time (UTC)temp
F
wind
direction
speed
MPH
gust
MPH
rain 1hr
in
rain 24hr
in
rain mn
in
humidity
%
barometer
mb
20260509091533 49 10 0.0 0.0 0.00 0.00 0.00 96 1021.3
20260509090053 48 333 0.0 0.0 0.00 0.00 0.00 96 1021.4
20260509084531 48 332 0.0 0.0 0.00 0.00 0.00 96 1021.4
20260509083044 48 4 0.0 0.0 0.00 0.00 0.00 96 1021.3
20260509081529 48 327 0.0 0.0 0.00 0.00 0.00 96 1021.1
20260509080033 48 6 0.0 0.0 0.00 0.00 0.00 96 1021.0
20260509074533 48 26 0.0 1.0 0.00 0.00 0.00 96 1021.0
20260509073025 48 10 0.0 1.0 0.00 0.00 0.00 96 1021.1
20260509071525 48 352 0.0 0.0 0.00 0.00 0.00 96 1021.0
20260509070032 49 6 0.0 0.0 0.00 0.00 0.00 96 1020.7
20260509064521 49 305 0.0 0.0 0.00 0.00 0.00 96 1020.8
20260509063019 49 305 0.0 0.0 0.00 0.00 0.00 96 1020.6
20260509061520 49 305 0.0 0.0 0.00 0.00 0.00 96 1020.6
20260509060017 48 305 0.0 0.0 0.00 0.00 0.00 96 1020.4
20260509054515 48 305 0.0 0.0 0.00 0.00 0.00 96 1020.1
20260509053022 48 305 0.0 0.0 0.00 0.00 0.00 96 1019.9
20260509051514 48 305 0.0 0.0 0.00 0.00 0.00 96 1019.7
20260509050034 48 304 0.0 1.0 0.00 0.00 0.00 96 1019.6
20260509044513 48 357 0.0 0.0 0.00 0.00 0.00 96 1019.4
20260509043021 47 345 0.0 0.0 0.00 0.00 0.00 96 1019.4
20260509041510 47 345 0.0 0.0 0.00 0.00 0.00 96 1019.4
20260509040008 48 345 0.0 0.0 0.00 0.00 0.00 96 1019.5
20260509034506 48 345 0.0 0.0 0.00 0.00 0.00 96 1019.5
20260509033006 48 345 0.0 0.0 0.00 0.00 0.00 96 1019.5
20260509031505 48 345 0.0 0.0 0.00 0.00 0.00 96 1019.6
20260509030014 48 345 0.0 0.0 0.00 0.00 0.00 96 1019.8
20260509024503 48 345 0.0 0.0 0.00 0.00 0.00 96 1020.0
20260509023005 48 345 0.0 0.0 0.00 0.00 0.00 96 1019.9
20260509021503 48 344 0.0 0.0 0.00 0.00 0.00 96 1019.7
20260509020002 48 345 0.0 0.0 0.00 0.00 0.00 96 1019.9
20260509014600 49 344 0.0 0.0 0.00 0.00 0.00 96 1019.8
20260509013110 49 344 0.0 0.0 0.00 0.00 0.00 96 1020.0
20260509011605 49 345 0.0 0.0 0.00 0.00 0.00 96 1020.0
20260509010059 49 345 0.0 0.0 0.00 0.00 0.00 96 1020.0
20260509004600 49 345 0.0 0.0 0.00 0.00 0.00 95 1019.9
20260509003054 49 345 0.0 0.0 0.00 0.00 0.00 95 1019.9
20260509001554 50 345 0.0 0.0 0.00 0.00 0.00 95 1019.7
20260509000052 49 345 0.0 0.0 0.00 0.00 0.00 95 1019.6
20260508234550 49 345 0.0 0.0 0.00 0.00 0.00 95 1019.6
20260508233049 50 345 0.0 0.0 0.00 0.00 0.00 95 1019.6
20260508231552 49 345 0.0 0.0 0.00 0.00 0.00 95 1019.5
20260508230043 50 345 0.0 0.0 0.00 0.00 0.00 95 1019.3
20260508224601 50 345 0.0 0.0 0.00 0.00 0.00 95 1019.3
20260508223043 50 345 0.0 0.0 0.00 0.00 0.00 95 1019.2
20260508221553 50 345 0.0 0.0 0.00 0.00 0.00 95 1019.3
20260508220041 50 345 0.0 0.0 0.00 0.00 0.00 95 1019.3
20260508214546 50 345 0.0 0.0 0.00 0.00 0.00 95 1019.2
20260508213040 50 345 0.0 0.0 0.00 0.00 0.00 94 1019.3
20260508211542 50 345 0.0 0.0 0.00 0.00 0.00 94 1019.3
20260508210040 50 345 0.0 0.0 0.00 0.00 0.00 94 1019.3
20260508204537 50 345 0.0 0.0 0.00 0.00 0.00 93 1019.2
20260508203036 51 345 0.0 0.0 0.00 0.00 0.00 93 1019.0
20260508201538 51 344 0.0 0.0 0.00 0.00 0.00 92 1018.9
20260508200044 52 344 0.0 0.0 0.00 0.00 0.00 91 1018.8
20260508194531 52 359 0.0 0.0 0.00 0.00 0.00 90 1018.8
20260508193029 53 359 0.0 0.0 0.00 0.00 0.00 89 1018.7
20260508191531 53 359 0.0 0.0 0.00 0.00 0.00 89 1018.5
20260508190025 53 359 0.0 0.0 0.00 0.00 0.00 88 1017.9
20260508184527 54 359 0.0 0.0 0.00 0.00 0.00 87 1017.8
20260508183019 54 359 0.0 0.0 0.00 0.00 0.00 86 1017.8
20260508181517 54 338 0.0 0.0 0.00 0.00 0.00 85 1017.7
20260508180016 55 70 0.0 0.0 0.00 0.00 0.00 86 1017.7
20260508174514 55 355 0.0 0.0 0.00 0.00 0.00 84 1017.4
20260508173016 55 17 0.0 0.0 0.00 0.00 0.00 84 1017.2
20260508171525 55 17 0.0 0.0 0.00 0.00 0.00 83 1017.2
20260508170011 57 151 0.0 0.0 0.00 0.00 0.00 75 1017.2
20260508164509 59 149 0.0 0.0 0.00 0.00 0.00 71 1016.9
20260508163108 59 191 0.0 0.0 0.00 0.00 0.00 72 1016.7
20260508161511 60 178 0.0 0.0 0.00 0.00 0.00 72 1016.6
20260508160006 60 174 0.0 1.0 0.00 0.00 0.00 71 1016.5
20260508154507 59 204 0.0 0.0 0.00 0.00 0.00 73 1016.7
20260508153005 59 143 0.0 0.0 0.00 0.00 0.00 73 1016.7
20260508151506 59 117 0.0 0.0 0.00 0.00 0.00 71 1016.6
20260508150012 59 143 0.0 4.0 0.00 0.00 0.00 71 1016.5
20260508144508 59 162 0.0 0.0 0.00 0.00 0.00 72 1016.7
20260508143010 59 131 0.0 4.0 0.00 0.00 0.00 75 1016.6
20260508141503 59 143 0.0 3.0 0.00 0.00 0.00 80 1016.6
20260508140003 57 113 0.0 0.0 0.00 0.00 0.00 83 1016.7
20260508134501 57 170 0.0 0.0 0.00 0.00 0.00 82 1016.9
20260508133100 57 145 0.0 0.0 0.00 0.00 0.00 80 1016.6
20260508131604 55 136 0.0 0.0 0.00 0.00 0.00 86 1016.7
20260508130100 54 94 0.0 0.0 0.00 0.00 0.00 85 1016.7
20260508124602 52 115 0.0 0.0 0.00 0.00 0.00 87 1016.6
20260508123058 52 211 0.0 0.0 0.00 0.00 0.00 84 1016.8
20260508121559 53 153 0.0 5.0 0.00 0.00 0.00 78 1017.1
20260508120054 56 145 0.0 6.0 0.00 0.00 0.00 69 1016.5
20260508114601 60 181 0.0 5.0 0.00 0.00 0.00 67 1016.4
20260508113122 62 158 0.0 0.0 0.00 0.00 0.00 65 1016.2
20260508111551 63 129 0.0 0.0 0.00 0.00 0.00 62 1016.2
20260508110051 64 129 0.0 0.0 0.00 0.00 0.00 59 1016.2
20260508104556 65 148 0.0 0.0 0.00 0.00 0.00 58 1016.2
20260508103057 65 142 0.0 0.0 0.00 0.00 0.00 59 1016.2
20260508101550 65 137 0.0 0.0 0.00 0.00 0.00 59 1016.2
20260508100044 63 186 0.0 0.0 0.00 0.00 0.00 62 1016.2
20260508094540 62 187 0.0 0.0 0.00 0.00 0.00 62 1016.2
20260508093036 61 160 0.0 0.0 0.00 0.00 0.00 66 1016.1